This demonstration page uses our WeatherBlox Daily Observations layout. Learn more.

Hourly Observations for July 10, 2019

Temp ( °F °C ) Dew Point ( °F °C ) Humidity (%) Winds ( mph kmh ) Pressure ( in mb ) Visibility ( mi km ) Precip ( " mm )
12:15 am 00:15 Clear 71 21.7 71 21.5 99 99 NE 6 9 29.94 1014 10 16.09344 0 0
12:35 am 00:35 Clear 71 21.6 71 21.5 99 99 ENE 6 9 29.94 1014 10 16.09344 0 0
12:55 am 00:55 Clear 73 22.8 72 22.1 96 96 E 7 11 29.94 1014 10 16.09344 0 0
1:15 am 01:15 Partly Cloudy 74 23.5 71 21.7 90 90 Calm 29.97 1015 10 16.09344 0 0
1:35 am 01:35 Mostly Cloudy with Nearby Thunderstorms 73 22.6 72 22 96 96 NE 6 9 29.94 1014 10 16.09344 0 0
1:55 am 01:55 Partly Cloudy 73 22.5 71 21.6 95 95 ENE 6 9 29.94 1014 10 16.09344 0 0
2:15 am 02:15 Partly Cloudy 72 22.1 71 21.5 96 96 N 3 6 29.94 1014 10 16.09344 0 0
2:35 am 02:35 Mostly Cloudy with Nearby Thunderstorms 73 22.5 71 21.7 95 95 N 10 17 29.97 1015 10 16.09344 0 0
2:55 am 02:55 Mostly Cloudy with Light Thunderstorms 70 21 65 18.6 86 86 N 18 30 30 1016 10 16.09344 0 0
3:15 am 03:15 Partly Cloudy with Thunderstorms 67 19.5 64 17.8 90 90 NNW 13 20 30.06 1018 10 16.09344 0 0
3:35 am 03:35 Mostly Cloudy with Heavy Thunderstorms 66 19 65 18.1 95 95 W 17 28 30.06 1018 7 11.265408 0.04 1.016
3:55 am 03:55 Cloudy with Thunderstorms 65 18.6 64 17.9 96 96 E 7 11 30.06 1018 7 11.265408 0.09 2.286
4:15 am 04:15 Mostly Cloudy with Thunderstorms 65 18.6 64 18 96 96 E 5 7 30.06 1018 10 16.09344 0 0
4:35 am 04:35 Partly Cloudy with Light Rain 66 19 65 18.1 95 95 ENE 6 9 30.03 1017 10 16.09344 0 0
4:55 am 04:55 Clear 66 18.7 64 18 96 96 NNW 9 15 30.06 1018 10 16.09344 0 0
5:15 am 05:15 Clear 65 18.5 65 18.2 98 98 NNW 7 11 30.06 1018 10 16.09344 0 0
5:35 am 05:35 Partly Cloudy 66 18.7 64 18 96 96 NW 6 9 30.06 1018 10 16.09344 0 0
5:55 am 05:55 Mostly Cloudy with Light Rain 65 18.6 64 17.7 95 95 N 7 11 30.06 1018 10 16.09344 0 0
6:15 am 06:15 Mostly Cloudy 65 18.3 63 17 92 92 N 5 7 30.09 1019 10 16.09344 0 0
6:35 am 06:35 Cloudy 64 17.8 63 17 95 95 NNE 3 6 30.09 1019 10 16.09344 0 0
6:55 am 06:55 Cloudy 64 18 62 16.7 92 92 NE 5 7 30.12 1020 10 16.09344 0 0
7:15 am 07:15 Cloudy 64 18 62 16.5 91 91 N 6 9 30.12 1020 10 16.09344 0 0
7:35 am 07:35 Partly Cloudy 64 18 62 16.4 90 90 NNE 6 9 30.12 1020 10 16.09344 0 0
7:55 am 07:55 Sunny 64 17.9 61 15.9 88 88 NNE 6 9 30.12 1020 10 16.09344 0 0
8:15 am 08:15 Partly Cloudy 65 18.1 60 15.7 86 86 NNE 8 13 30.12 1020 10 16.09344 0 0
8:35 am 08:35 Partly Cloudy 67 19.2 60 15.7 80 80 NNE 8 13 30.12 1020 10 16.09344 0 0
8:55 am 08:55 Sunny 67 19.5 58 14.7 74 74 NNE 8 13 30.15 1021 10 16.09344 0 0
9:15 am 09:15 Sunny 68 20 58 14.4 70 70 N 8 13 30.15 1021 10 16.09344 0 0
9:35 am 09:35 Sunny 69 20.5 58 14.4 68 68 N 12 19 30.15 1021 10 16.09344 0 0
9:55 am 09:55 Sunny 70 21 59 15.2 70 70 N 10 17 30.15 1021 10 16.09344 0 0
10:15 am 10:15 Sunny 71 21.5 59 15.1 67 67 N 9 15 30.15 1021 10 16.09344 0 0
10:35 am 10:35 Sunny 71 21.8 58 14.2 62 62 N 12 19 30.12 1020 10 16.09344 0 0
10:55 am 10:55 Sunny 72 22.2 58 14.2 61 61 N 10 17 30.12 1020 10 16.09344 0 0
11:15 am 11:15 Sunny 73 22.7 58 14.6 60 60 N 12 19 30.12 1020 10 16.09344 0 0
11:35 am 11:35 Sunny 74 23.5 59 14.8 58 58 NNW 10 17 30.12 1020 10 16.09344 0 0
11:55 am 11:55 Sunny 74 23.6 58 14.7 58 58 NNW 9 15 30.12 1020 10 16.09344 0 0
12:15 pm 12:15 Sunny 75 23.9 58 14.6 56 56 N 12 19 30.12 1020 10 16.09344 0 0
12:35 pm 12:35 Sunny 75 24 58 14.6 56 56 N 9 15 30.12 1020 10 16.09344 0 0
12:55 pm 12:55 Sunny 75 24 57 13.9 53 53 N 8 13 30.12 1020 10 16.09344 0 0
1:15 pm 13:15 Sunny 76 24.5 58 14.6 54 54 NNW 12 19 30.12 1020 10 16.09344 0 0
1:30 pm 13:30 Sunny 76 24.7 58 14.7 54 54 NNW 7 11 30.09 1019 10 16.09344 0 0
1:55 pm 13:55 Sunny 77 24.8 57 13.8 50 50 NW 10 17 30.09 1019 10 16.09344 0 0
2:15 pm 14:15 Sunny 77 25.1 55 12.8 46 46 NNW 8 13 30.06 1018 10 16.09344 0 0
2:35 pm 14:35 Sunny 78 25.3 57 14 50 50 NW 7 11 30.06 1018 10 16.09344 0 0
2:55 pm 14:55 Sunny 77 25.2 57 13.7 49 49 NW 7 11 30.06 1018 10 16.09344 0 0
3:15 pm 15:15 Sunny 78 25.8 60 15.4 53 53 NW 12 19 30.06 1018 10 16.09344 0 0
3:35 pm 15:35 Sunny 79 26 60 15.4 52 52 NW 9 15 30.06 1018 10 16.09344 0 0
3:55 pm 15:55 Sunny 79 26 60 15.4 52 52 NW 9 15 30.06 1018 10 16.09344 0 0
4:15 pm 16:15 Sunny 79 26 59 14.8 50 50 NNW 10 17 30.06 1018 10 16.09344 0 0
4:35 pm 16:35 Sunny 80 26.5 60 15.4 51 51 NW 10 17 30.03 1017 10 16.09344 0 0
4:55 pm 16:55 Sunny 80 26.5 60 15.5 51 51 NW 8 13 30.03 1017 10 16.09344 0 0
5:15 pm 17:15 Sunny 80 26.5 60 15.3 50 50 NW 9 15 30.03 1017 10 16.09344 0 0
5:35 pm 17:35 Sunny 80 26.6 60 15.4 50 50 NW 8 13 30.03 1017 10 16.09344 0 0
5:55 pm 17:55 Sunny 80 26.7 60 15.6 51 51 NW 9 15 30.03 1017 10 16.09344 0 0
6:15 pm 18:15 Sunny 80 26.7 60 15.3 50 50 NNW 8 13 30.03 1017 10 16.09344 0 0
6:35 pm 18:35 Sunny 80 26.5 62 16.4 54 54 NNW 7 11 30.03 1017 10 16.09344 0 0
6:55 pm 18:55 Sunny 80 26.5 61 16 53 53 NNW 7 11 30.03 1017 10 16.09344 0 0
7:15 pm 19:15 Sunny 79 26 62 16.7 57 57 N 3 6 30.03 1017 10 16.09344 0 0
7:35 pm 19:35 Sunny 78 25.4 64 17.5 62 62 N 5 7 30.03 1017 10 16.09344 0 0
7:55 pm 19:55 Sunny 77 24.9 66 18.9 69 69 NNE 3 6 30.03 1017 10 16.09344 0 0
8:15 pm 20:15 Sunny 76 24.4 66 19 72 72 N 3 6 30.06 1018 10 16.09344 0 0
8:35 pm 20:35 Sunny 74 23.2 67 19.4 79 79 N 3 6 30.06 1018 10 16.09344 0 0
8:55 pm 20:55 Sunny 73 22.5 65 18.5 78 78 Calm 30.06 1018 10 16.09344 0 0
9:15 pm 21:15 Clear 71 21.5 66 19 86 86 NNE 3 6 30.06 1018 10 16.09344 0 0
9:35 pm 21:35 Clear 70 21.1 64 18 83 83 Calm 30.12 1020 10 16.09344 0 0
9:55 pm 21:55 Clear 69 20.7 64 17.5 82 82 Calm 30.12 1020 10 16.09344 0 0
10:15 pm 22:15 Clear 69 20.5 63 17.3 82 82 Calm 30.12 1020 10 16.09344 0 0
10:35 pm 22:35 Clear 68 20 64 17.9 88 88 Calm 30.12 1020 10 16.09344 0 0
10:55 pm 22:55 Clear 67 19.4 65 18.5 95 95 Calm 30.12 1020 10 16.09344 0 0
11:15 pm 23:15 Clear 67 19.3 65 18.2 93 93 Calm 30.12 1020 10 16.09344 0 0
11:35 pm 23:35 Clear 67 19.2 66 18.7 97 97 Calm 30.15 1021 10 16.09344 0 0
11:55 pm 23:55 Clear 66 18.9 65 18.1 95 95 Calm 30.15 1021 10 16.09344 0 0

Powered by AerisWeather